星链-37199(STARLINK-37199)

导读

STARLINK-37199(NORAD编号68327)是美国太空探索技术公司(SpaceX)星链(Starlink)项目的低轨互联网通信卫星,于2024年12月8日发射入轨,截至2026年4月已在轨约488天。该卫星运行在近地点355.15公里、远地点356.99公里的近地轨道,轨道倾角43.001°,周期约91.66分钟,采用Starlink V1.0平台,配备相控阵天线,可同时连接多用户终端,参与构建全球低延迟、大容量卫星互联网,为民用消费、特殊行业提供宽带接入服务。

基本信息
目录编号:
68327
目录名称:
STARLINK-37199
国际标识:
2026-059G
轨道中心:
EARTH
卫星名称:
星链-37199
卫星全名:
星链-37199(STARLINK-37199)
卫星状态:
在轨 (已飞行173 天)
发射日期:
2026-03-22 UTC
国别 :
美国 (US)
星等 :
--
该卫星已列入 空间交会检测服务 Space Conjunction Data Service (SCDS) ,当前飞行风险评估等级: 高风险
轨道信息
数据来源 国际轨道数据 AOE轨道数据
星历时间 2026-09-10T11:52:03+0800
1天前
查看轨道信息
2026-09-05T23:00:00+0800
6天前
查看轨道信息
半长轴 6840.838km 6840.767km
偏心率 0.0001768 0.0001154
轨道倾角 53.158° 53.157°
近地点辐角 97.516° 72.619°
升交点赤经 209.686° 230.894°
平近点角 262.604° 56.686°
近地点 461.491km 461.84km
远地点 463.911km 463.42km
周期 93.848分钟 93.846分钟
每日圈数 15.344008 15.344248
详细信息
固有亮度:
5
最大亮度:
2.5
卫星平台:
Starlink V1.0
覆盖范围:
全球
运营商:
太空探索技术公司
运营商所在国:
美国
制造商(研发单位):
太空探索技术公司
制造商所在国:
美国
使用方式:
暂无
卫星简介
Starlink 计划是 SpaceX 推出的全球卫星互联网项目,通过发射低轨道卫星,为全球尤其是偏远地区提供高速、低延迟的互联网服务。自 2019 年起,Starlink 已部署数千颗卫星,旨在缩小全球数字鸿沟,推动互联网普及。该项目还为军事、航空等行业提供通信支持,带来广泛经济效益。
2D轨道图
3D轨道图
轨道高度分析图
轨道倾角分析图
轨道综合分析图
查看轨道综合分析图
交会数据列表
事件ID 空间交会对象 最接近时刻(TCA) 交会距离 交会风险概率(CRP) 交会风险指数(CRI) 操作
CDM_260912-141106-832706-950821
2026-09-12T
14:11:32+0000
0.353 km
远距离
2.755343E-4 高风险 0.84
CDM_260913-154606-550706-832721
2026-09-13T
15:46:27+0000
0.470 km
远距离
1.609313E-4 高风险 0.79
CDM_260913-032605-186106-832722
2026-09-13T
03:26:18+0000
0.562 km
远距离
7.254508E-5 中风险 0.72
CDM_260913-172006-550706-832721
2026-09-13T
17:20:14+0000
0.767 km
远距离
4.1325E-5 中风险 0.67
CDM_260912-110406-159306-832721
2026-09-12T
11:04:20+0000
0.901 km
远距离
2.336983E-5 中风险 0.62
CDM_260912-233105-186106-832722
2026-09-12T
23:31:50+0000
0.927 km
远距离
1.504955E-5 中风险 0.59
CDM_260913-001506-491106-832721
2026-09-13T
00:15:05+0000
0.778 km
远距离
7.972512E-6 低风险 0.53
CDM_260913-002106-832706-950821
2026-09-13T
00:21:10+0000
1.367 km
极远距离
5.420684E-6 低风险 0.5
CDM_260912-194006-159306-832721
2026-09-12T
19:40:11+0000
1.505 km
极远距离
4.084908E-6 低风险 0.47
CDM_260913-150205-897406-832721
2026-09-13T
15:02:04+0000
1.451 km
极远距离
3.768462E-6 低风险 0.47
与全量物体交会距离演化趋势
与全量物体交会风险概率演化趋势